Location: ???? ???? ?????
(31.2680°N, 31.7283°E)
Time: 19:19:59
(UTC+00:00)

Resurs 01 Rocket - Pass Details

Date: 13 July 2020
Orbit: 634 x 644 km, 98.0° (Epoch: 06 August)

Event Time Altitude Azimuth Distance (km) Brightness Sun altitude
Exits shadow 19:01:00 29° 206° (SSW) 1,164 2.8 -22.0°
Maximum altitude 19:02:47 45° 260° (W) 863 2.5 -22.3°
Drops below altitude 10° 19:07:01 10° 334° (NNW) 2,023 5.2 -22.9°
Sets 19:09:18 0° 341° (NNW) 2,934 6.1 -23.3°
